Burley, ID

5:07 PM MDT on July 29, 2016 (GMT -0600)
Burley Municipal

Weather History for KBYI - June, 2013

Change the Weather History Date:

Sunday, June 16, 2013

  Actual Average Record
Temperature  
Mean Temperature 65 °F 62 °F  
Max Temperature 88 °F 76 °F 100 °F (1974)
Min Temperature 41 °F 48 °F 37 °F (1952)
Degree Days  
Heating Degree Days 0 4  
Month to date heating degree days 56 94  
Since 1 June heating degree days 56 94  
Since 1 July heating degree days 6432 6825  
Cooling Degree Days 0 1  
Month to date cooling degree days 33 16  
Year to date cooling degree days 43 22  
Since 1 June cooling degree days 33 16  
Growing Degree Days 16 (Base 50)    
Moisture  
Dew Point 38 °F    
Average Humidity 46    
Maximum Humidity 77    
Minimum Humidity 15    
Precipitation  
Precipitation 0.00 in 0.03 in 0.55 in (1964)
Month to date precipitation 0.01 0.58  
Year to date precipitation 2.19 5.77  
Sea Level Pressure  
Sea Level Pressure 29.88 in    
Wind  
Wind Speed 3 mph (South)    
Max Wind Speed 13 mph    
Max Gust Speed 18 mph    
Visibility 10 miles    
Events      
T = Trace of Precipitation, MM = Missing Value Source: NWS Daily Summary

Daily Weather History Graph

Daily Weather History Graph

Search for Another Location

Airport or City:

Trip Planner

Search our weather history database for the weather conditions in past years. The results will help you decide how hot, cold, wet, or windy it might be!

Date:

Astronomy

Jun. 16, 2013 Rise Set
Actual Time 5:57 AM MDT 9:14 PM MDT
Civil Twilight 5:22 AM MDT 9:49 PM MDT
Nautical Twilight 4:36 AM MDT 10:35 PM MDT
Astronomical Twilight 3:41 AM MDT 11:30 PM MDT
Moon 1:46 PM MDT (6/16) 1:12 AM MDT (6/16)
Length of Visible Light 16h 27m
Length of Day
15h 17m
Waxing Crescent, 50% of the Moon is Illuminated
Jun 16
Waxing Crescent
Jun 23
Full
Jun 29
Last Quarter
Jul 8
New
Jul 15
First Quarter

Hourly Weather History & Observations

Time (MDT) Temp. Windchill Dew Point Humidity Pressure Visibility Wind Dir Wind Speed Gust Speed Precip Events Conditions
12:53 AM 53.1 °F - 39.9 °F 61% 29.88 in 10.0 mi SSE 4.6 mph - N/A   Clear
1:53 AM 48.9 °F - 41.0 °F 74% 29.88 in 10.0 mi Calm Calm - N/A   Clear
2:53 AM 48.0 °F - 37.9 °F 68% 29.88 in 10.0 mi Calm Calm - N/A   Clear
3:53 AM 45.0 °F - 37.9 °F 76% 29.89 in 10.0 mi Calm Calm - N/A   Clear
4:53 AM 45.0 °F 43.5 °F 37.9 °F 76% 29.89 in 10.0 mi SSW 3.5 mph - N/A   Clear
5:53 AM 45.0 °F - 37.9 °F 76% 29.92 in 10.0 mi Calm Calm - N/A   Clear
6:53 AM 46.9 °F - 39.0 °F 74% 29.93 in 10.0 mi Calm Calm - N/A   Clear
7:53 AM 54.0 °F - 43.0 °F 66% 29.92 in 10.0 mi Calm Calm - N/A   Clear
8:53 AM 61.0 °F - 41.0 °F 48% 29.93 in 10.0 mi Calm Calm - N/A   Clear
9:53 AM 66.0 °F - 41.0 °F 40% 29.94 in 10.0 mi East 3.5 mph - N/A   Clear
10:53 AM 70.0 °F - 39.9 °F 33% 29.93 in 10.0 mi Calm Calm - N/A   Clear
11:53 AM 73.9 °F - 42.1 °F 32% 29.91 in 10.0 mi Variable 4.6 mph - N/A   Clear
12:53 PM 79.0 °F - 39.9 °F 25% 29.90 in 10.0 mi East 4.6 mph - N/A   Clear
1:53 PM 84.0 °F - 41.0 °F 22% 29.87 in 10.0 mi North 5.8 mph - N/A   Clear
2:53 PM 84.0 °F - 37.9 °F 19% 29.86 in 10.0 mi Variable 3.5 mph - N/A   Clear
3:53 PM 84.9 °F - 35.1 °F 17% 29.85 in 10.0 mi Variable 5.8 mph - N/A   Clear
4:53 PM 87.1 °F - 34.0 °F 15% 29.83 in 10.0 mi NNE 4.6 mph - N/A   Clear
5:53 PM 84.9 °F - 32.0 °F 15% 29.83 in 10.0 mi West 5.8 mph - N/A   Clear
6:53 PM 82.9 °F - 37.0 °F 19% 29.83 in 10.0 mi West 9.2 mph 17.3 mph N/A   Clear
7:53 PM 78.1 °F - 39.0 °F 25% 29.84 in 10.0 mi West 11.5 mph - N/A   Clear
8:53 PM 75.0 °F - 41.0 °F 29% 29.85 in 10.0 mi SSW 6.9 mph - N/A   Clear
9:53 PM 75.9 °F - 32.0 °F 20% 29.85 in 10.0 mi ESE 6.9 mph - N/A   Clear
10:53 PM 64.0 °F - 36.0 °F 35% 29.88 in 10.0 mi Calm Calm - N/A   Clear
11:53 PM 61.0 °F - 39.9 °F 46% 29.88 in 10.0 mi South 4.6 mph - N/A   Clear